KD0OXW Weather Reports


time (UTC)temp
C
wind
direction
speed
KPH
gust
KPH
rain 1hr
cm
rain 24hr
cm
rain mn
cm
humidity
%
barometer
mb
20260503030817 11 93 1.6 4.8 0.00 0.00 0.00 56 1010.3
20260503030317 11 302 1.6 3.2 0.00 0.00 0.00 58 1010.3
20260503025817 11 183 1.6 6.4 0.00 0.00 0.00 59 1010.5
20260503025317 11 305 1.6 3.2 0.00 0.00 0.00 57 1010.5
20260503024817 11 322 3.2 9.7 0.00 0.00 0.00 57 1010.5
20260503024317 11 291 3.2 4.8 0.00 0.00 0.00 55 1010.5
20260503023817 11 123 3.2 6.4 0.00 0.00 0.00 54 1010.4
20260503023317 11 145 1.6 6.4 0.00 0.00 0.00 54 1010.6
20260503022817 11 125 3.2 6.4 0.00 0.00 0.00 53 1010.5
20260503022317 10 191 1.6 12.9 0.00 0.00 0.00 54 1010.5
20260503021817 10 194 0.0 0.0 0.00 0.00 0.00 52 1010.5
20260503021317 10 132 0.0 0.0 0.00 0.00 0.00 53 1010.6
20260503020817 10 59 0.0 0.0 0.00 0.00 0.00 52 1010.5
20260503020317 10 5 0.0 0.0 0.00 0.00 0.00 53 1010.6
20260503015817 10 31 0.0 1.6 0.00 0.00 0.00 52 1010.6
20260503015317 11 88 0.0 0.0 0.00 0.00 0.00 52 1010.5
20260503014817 11 88 0.0 3.2 0.00 0.00 0.00 51 1010.6
20260503014317 11 134 0.0 3.2 0.00 0.00 0.00 50 1010.6
20260503013817 11 138 0.0 1.6 0.00 0.00 0.00 50 1010.6
20260503013317 11 145 0.0 3.2 0.00 0.00 0.00 49 1010.6
20260503012817 11 185 1.6 3.2 0.00 0.00 0.00 49 1010.6
20260503012317 12 138 1.6 4.8 0.00 0.00 0.00 47 1010.6
20260503011817 12 213 1.6 4.8 0.00 0.00 0.00 47 1010.6
20260503011317 12 136 1.6 4.8 0.00 0.00 0.00 47 1010.6
20260503010818 12 170 1.6 4.8 0.00 0.00 0.00 46 1010.6
20260503010317 12 170 1.6 6.4 0.00 0.00 0.00 44 1010.7
20260503005817 12 169 0.0 4.8 0.00 0.00 0.00 44 1010.7
20260503005317 12 142 0.0 3.2 0.00 0.00 0.00 44 1010.8
20260503004817 12 272 0.0 0.0 0.00 0.00 0.00 44 1010.8
20260503004317 13 272 0.0 0.0 0.00 0.00 0.00 43 1010.9
20260503003818 13 272 0.0 3.2 0.00 0.00 0.00 42 1011.0
20260503003318 13 186 0.0 4.8 0.00 0.00 0.00 44 1011.0
20260503002818 13 155 0.0 4.8 0.00 0.00 0.00 43 1011.0
20260503002318 13 250 1.6 1.6 0.00 0.00 0.00 42 1011.1
20260503001818 13 250 1.6 3.2 0.00 0.00 0.00 43 1011.1
20260503001318 13 333 1.6 3.2 0.00 0.00 0.00 42 1011.1
20260503000818 13 130 1.6 3.2 0.00 0.00 0.00 42 1011.2
20260503000318 13 82 1.6 4.8 0.00 0.00 0.00 40 1011.3
20260502235818 13 96 1.6 6.4 0.00 0.00 0.00 41 1011.4
20260502235318 13 310 1.6 3.2 0.00 0.00 0.00 40 1011.4
20260502234818 13 269 1.6 4.8 0.00 0.00 0.00 39 1011.5
20260502234318 14 205 1.6 9.7 0.00 0.00 0.00 42 1011.6
20260502233818 14 61 1.6 4.8 0.00 0.00 0.00 38 1011.6
20260502233318 14 240 1.6 3.2 0.00 0.00 0.00 40 1011.6
20260502232818 14 69 1.6 6.4 0.00 0.00 0.00 39 1011.7
20260502232318 14 179 1.6 4.8 0.00 0.00 0.00 38 1011.8
20260502231818 14 240 3.2 6.4 0.00 0.00 0.00 39 1011.8
20260502231318 14 18 3.2 12.9 0.00 0.00 0.00 39 1011.9
20260502230818 14 185 1.6 4.8 0.00 0.00 0.00 38 1012.2
20260502230318 14 250 1.6 8.0 0.00 0.00 0.00 40 1012.0
20260502225818 14 46 1.6 4.8 0.00 0.00 0.00 39 1012.0
20260502225318 15 220 3.2 4.8 0.00 0.00 0.00 36 1011.9
20260502224818 15 219 3.2 8.0 0.00 0.00 0.00 36 1012.1
20260502224318 15 208 3.2 8.0 0.00 0.00 0.00 35 1012.0
20260502223818 15 13 3.2 8.0 0.00 0.00 0.00 36 1012.2
20260502223318 15 312 4.8 14.5 0.00 0.00 0.00 36 1012.2
20260502222818 15 220 4.8 12.9 0.00 0.00 0.00 35 1012.2
20260502222318 15 321 4.8 14.5 0.00 0.00 0.00 34 1012.3
20260502221818 15 252 4.8 12.9 0.00 0.00 0.00 34 1012.4
20260502221318 15 297 4.8 12.9 0.00 0.00 0.00 34 1012.4
20260502220818 15 67 4.8 12.9 0.00 0.00 0.00 33 1012.4
20260502220318 15 313 4.8 14.5 0.00 0.00 0.00 37 1012.5
20260502215818 15 216 4.8 6.4 0.00 0.00 0.00 34 1012.5
20260502215318 15 216 4.8 12.9 0.00 0.00 0.00 34 1012.6
20260502214818 15 121 6.4 12.9 0.00 0.00 0.00 33 1012.7
20260502214318 15 199 6.4 12.9 0.00 0.00 0.00 34 1012.7
20260502213818 15 132 4.8 11.3 0.00 0.00 0.00 33 1012.6
20260502213318 15 219 6.4 14.5 0.00 0.00 0.00 31 1012.7
20260502212818 15 217 6.4 14.5 0.00 0.00 0.00 31 1012.8
20260502212318 16 249 3.2 12.9 0.00 0.00 0.00 33 1012.8
20260502211818 15 142 3.2 8.0 0.00 0.00 0.00 34 1012.8
20260502211318 15 223 3.2 11.3 0.00 0.00 0.00 33 1013.1
20260502210818 15 249 4.8 11.3 0.00 0.00 0.00 33 1013.1
20260502210318 15 328 6.4 14.5 0.00 0.00 0.00 33 1013.2
20260502205818 15 306 8.0 17.7 0.00 0.00 0.00 31 1013.3
20260502205318 15 304 6.4 14.5 0.00 0.00 0.00 32 1013.3
20260502204818 14 84 4.8 14.5 0.00 0.00 0.00 35 1013.4
20260502204318 13 323 4.8 16.1 0.00 0.00 0.00 32 1013.5
20260502203818 13 165 4.8 11.3 0.00 0.00 0.00 33 1013.6
20260502203318 13 286 6.4 16.1 0.00 0.00 0.00 31 1013.6
20260502202818 14 276 6.4 17.7 0.00 0.00 0.00 31 1013.7
20260502202318 14 275 6.4 16.1 0.00 0.00 0.00 31 1013.8
20260502201818 15 246 6.4 27.4 0.00 0.00 0.00 29 1013.8
20260502201318 15 205 6.4 16.1 0.00 0.00 0.00 30 1013.8
20260502200818 15 263 4.8 20.9 0.00 0.00 0.00 30 1014.0
20260502200318 15 116 4.8 14.5 0.00 0.00 0.00 33 1013.9
20260502195818 15 215 4.8 14.5 0.00 0.00 0.00 31 1014.0
20260502195318 15 190 4.8 12.9 0.00 0.00 0.00 38 1014.1
20260502194818 14 17 4.8 17.7 0.00 0.00 0.00 31 1014.3
20260502194318 14 162 8.0 11.3 0.00 0.00 0.00 33 1014.4
20260502193818 14 350 9.7 16.1 0.00 0.00 0.00 29 1014.5
20260502193318 14 164 8.0 24.1 0.00 0.00 0.00 34 1014.6
20260502192818 14 355 6.4 24.1 0.00 0.00 0.00 31 1014.7
20260502192318 13 111 3.2 6.4 0.00 0.00 0.00 30 1014.7
20260502191818 13 53 6.4 17.7 0.00 0.00 0.00 28 1014.9
20260502191318 14 20 6.4 14.5 0.00 0.00 0.00 28 1015.0
20260502190818 14 285 4.8 19.3 0.00 0.00 0.00 32 1015.1
20260502190318 13 290 4.8 9.7 0.00 0.00 0.00 33 1015.1
20260502185818 13 182 6.4 14.5 0.00 0.00 0.00 32 1015.2
20260502185318 13 336 6.4 14.5 0.00 0.00 0.00 34 1015.3
20260502184818 13 309 4.8 14.5 0.00 0.00 0.00 32 1015.5
20260502184318 13 266 6.4 14.5 0.00 0.00 0.00 32 1015.5
20260502183818 13 55 8.0 22.5 0.00 0.00 0.00 32 1015.5
20260502183318 13 271 8.0 25.7 0.00 0.00 0.00 31 1015.7
20260502182818 13 321 6.4 17.7 0.00 0.00 0.00 32 1015.6
20260502182318 13 119 8.0 12.9 0.00 0.00 0.00 36 1015.7
20260502181818 13 180 8.0 20.9 0.00 0.00 0.00 35 1015.9
20260502181318 13 350 6.4 14.5 0.00 0.00 0.00 33 1015.9
20260502180818 13 116 4.8 16.1 0.00 0.00 0.00 32 1015.9
20260502180318 13 350 4.8 11.3 0.00 0.00 0.00 34 1016.0
20260502170319 12 245 9.7 19.3 0.00 0.00 0.00 34 1017.0
20260502164319 12 316 8.0 16.1 0.00 0.00 0.00 34 1017.4
20260502163819 11 205 6.4 12.9 0.00 0.00 0.00 39 1017.3
20260502163319 11 211 6.4 19.3 0.00 0.00 0.00 39 1017.3
20260502162819 11 355 9.7 19.3 0.00 0.00 0.00 36 1017.5
20260502162319 11 340 11.3 20.9 0.00 0.00 0.00 35 1017.6
20260502161819 11 19 8.0 24.1 0.00 0.00 0.00 37 1017.7
20260502161319 11 5 6.4 17.7 0.00 0.00 0.00 35 1017.7
20260502160819 11 5 6.4 14.5 0.00 0.00 0.00 35 1017.8
20260502160319 11 331 8.0 20.9 0.00 0.00 0.00 35 1017.8
20260502152319 10 338 6.4 12.9 0.00 0.00 0.00 39 1018.2
20260502151819 10 312 4.8 12.9 0.00 0.00 0.00 38 1018.3
20260502151319 10 267 4.8 14.5 0.00 0.00 0.00 39 1018.3
20260502150819 10 30 4.8 16.1 0.00 0.00 0.00 39 1018.4
20260502150319 10 198 4.8 8.0 0.00 0.00 0.00 42 1018.4
20260502130319 4 176 3.2 8.0 0.00 0.00 0.00 63 1019.3
20260502123319 1 161 0.0 3.2 0.00 0.00 0.00 89 1019.4
20260502122819 0 188 0.0 0.0 0.00 0.00 0.00 89 1019.4
20260502122319 0 53 0.0 0.0 0.00 0.00 0.00 90 1019.5
20260502121819 0 9 0.0 0.0 0.00 0.00 0.00 91 1019.5
20260502121319 -1 9 0.0 0.0 0.00 0.00 0.00 91 1019.5
20260502120819 -1 9 0.0 0.0 0.00 0.00 0.00 91 1019.4
20260502120319 -1 9 0.0 0.0 0.00 0.00 0.00 91 1019.4
20260502115819 -2 9 0.0 0.0 0.00 0.00 0.00 91 1019.4
20260502115319 -2 9 0.0 0.0 0.00 0.00 0.00 91 1019.4
20260502114819 -2 9 0.0 0.0 0.00 0.00 0.00 92 1019.3
20260502114319 -2 9 0.0 0.0 0.00 0.00 0.00 92 1019.3
20260502113819 -3 5 0.0 0.0 0.00 0.00 0.00 93 1019.4
20260502113319 -3 5 0.0 0.0 0.00 0.00 0.00 93 1019.4
20260502112819 -3 5 0.0 0.0 0.00 0.00 0.00 93 1019.4
20260502112319 -4 5 0.0 0.0 0.00 0.00 0.00 93 1019.3
20260502111819 -4 5 0.0 0.0 0.00 0.00 0.00 92 1019.3
20260502111319 -4 5 0.0 0.0 0.00 0.00 0.00 91 1019.3
20260502110819 -4 5 0.0 0.0 0.00 0.00 0.00 91 1019.3
20260502110319 -4 5 0.0 0.0 0.00 0.00 0.00 91 1019.3
20260502105819 -4 5 0.0 0.0 0.00 0.00 0.00 91 1019.2
20260502105320 -4 5 0.0 0.0 0.00 0.00 0.00 91 1019.3
20260502104819 -4 5 0.0 0.0 0.00 0.00 0.00 91 1019.4
20260502104320 -4 5 0.0 0.0 0.00 0.00 0.00 91 1019.4
20260502103820 -4 5 0.0 0.0 0.00 0.00 0.00 91 1019.4
20260502103320 -4 5 0.0 0.0 0.00 0.00 0.00 91 1019.4
20260502102820 -4 5 0.0 0.0 0.00 0.00 0.00 90 1019.4
20260502102320 -4 5 0.0 0.0 0.00 0.00 0.00 90 1019.4
20260502101820 -4 5 0.0 0.0 0.00 0.00 0.00 90 1019.5
20260502101320 -4 5 0.0 0.0 0.00 0.00 0.00 90 1019.5
20260502100820 -3 5 0.0 0.0 0.00 0.00 0.00 90 1019.5
20260502100320 -3 5 0.0 0.0 0.00 0.00 0.00 90 1019.5
20260502091320 -3 5 0.0 0.0 0.00 0.00 0.00 88 1019.6
20260502090820 -3 5 0.0 0.0 0.00 0.00 0.00 88 1019.6
20260502090320 -3 5 0.0 0.0 0.00 0.00 0.00 89 1019.6
20260502071320 -2 5 0.0 0.0 0.00 0.00 0.00 87 1020.1
20260502070820 -2 5 0.0 0.0 0.00 0.00 0.00 87 1020.0
20260502070320 -2 5 0.0 0.0 0.00 0.00 0.00 87 1020.1
20260502065820 -2 5 0.0 0.0 0.00 0.00 0.00 87 1020.1
20260502065320 -2 5 0.0 0.0 0.00 0.00 0.00 87 1020.2
20260502064820 -3 5 0.0 0.0 0.00 0.00 0.00 87 1020.1
20260502064320 -3 5 0.0 0.0 0.00 0.00 0.00 86 1020.2
20260502063820 -3 5 0.0 0.0 0.00 0.00 0.00 86 1020.3
20260502063320 -3 5 0.0 0.0 0.00 0.00 0.00 86 1020.3
20260502062820 -2 5 0.0 0.0 0.00 0.00 0.00 85 1020.3
20260502062320 -2 5 0.0 0.0 0.00 0.00 0.00 85 1020.3
20260502061820 -2 5 0.0 0.0 0.00 0.00 0.00 85 1020.3
20260502061320 -2 5 0.0 0.0 0.00 0.00 0.00 84 1020.3
20260502060820 -2 5 0.0 0.0 0.00 0.00 0.00 84 1020.3
20260502060320 -2 5 0.0 0.0 0.00 0.00 0.00 84 1020.3
20260502055820 -2 5 0.0 0.0 0.00 0.00 0.00 83 1020.3
20260502055320 -2 5 0.0 0.0 0.00 0.00 0.00 83 1020.3
20260502054820 -2 5 0.0 0.0 0.00 0.00 0.00 82 1020.3
20260502054320 -2 5 0.0 0.0 0.00 0.00 0.00 82 1020.3
20260502053820 -2 5 0.0 0.0 0.00 0.00 0.00 82 1020.3
20260502053320 -2 5 0.0 0.0 0.00 0.00 0.00 82 1020.4
20260502052820 -1 5 0.0 0.0 0.00 0.00 0.00 81 1020.3
20260502052320 -1 5 0.0 0.0 0.00 0.00 0.00 81 1020.3
20260502051820 -1 5 0.0 0.0 0.00 0.00 0.00 80 1020.3
20260502051320 -1 5 0.0 0.0 0.00 0.00 0.00 80 1020.3
20260502050820 -1 5 0.0 0.0 0.00 0.00 0.00 80 1020.3
20260502050320 -1 5 0.0 0.0 0.00 0.00 0.00 80 1020.4
20260502045820 -1 5 0.0 0.0 0.00 0.00 0.00 79 1020.4
20260502045320 -1 5 0.0 0.0 0.00 0.00 0.00 78 1020.4
20260502044820 -1 5 0.0 0.0 0.00 0.00 0.00 78 1020.3
20260502044320 -1 5 0.0 0.0 0.00 0.00 0.00 77 1020.3
20260502043820 0 5 0.0 0.0 0.00 0.00 0.00 77 1020.3
20260502043320 0 5 0.0 0.0 0.00 0.00 0.00 77 1020.3
20260502042820 0 5 0.0 0.0 0.00 0.00 0.00 76 1020.3
20260502042320 0 5 0.0 0.0 0.00 0.00 0.00 75 1020.4
20260502041820 0 5 0.0 0.0 0.00 0.00 0.00 75 1020.3
20260502041320 0 5 0.0 0.0 0.00 0.00 0.00 74 1020.4
20260502040820 0 5 0.0 0.0 0.00 0.00 0.00 73 1020.4
20260502040321 0 5 0.0 0.0 0.00 0.00 0.00 73 1020.4
20260502035820 0 5 0.0 0.0 0.00 0.00 0.00 73 1020.4
20260502035320 0 5 0.0 0.0 0.00 0.00 0.00 73 1020.4
20260502034820 0 5 0.0 0.0 0.00 0.00 0.00 72 1020.4
20260502034321 0 5 0.0 0.0 0.00 0.00 0.00 72 1020.4
20260502033821 1 5 0.0 0.0 0.00 0.00 0.00 71 1020.4
20260502033321 1 5 0.0 0.0 0.00 0.00 0.00 70 1020.4
20260502032821 1 5 0.0 0.0 0.00 0.00 0.00 69 1020.5
20260502032321 1 5 0.0 0.0 0.00 0.00 0.00 69 1020.4
20260502031821 1 5 0.0 0.0 0.00 0.00 0.00 70 1020.5
20260502031321 1 5 0.0 0.0 0.00 0.00 0.00 69 1020.4